{"data":{"norad_id":58356,"epoch":"2026-05-24T19:52:37.577280Z","epoch_age_seconds":96726,"freshness":"FRESH","line1":"1 58356U 23177F   26144.82821270  .00000075  00000+0  12260-4 0  9990","line2":"2 58356  43.0056 280.4282 0001781 265.5825  94.4823 15.27575463139810","mean_motion":15.27575463,"eccentricity":0.0001781,"inclination_deg":43.0056,"raan_deg":280.4282,"arg_perigee_deg":265.5825,"mean_anomaly_deg":94.4823,"bstar":1.226e-5,"rev_number":13981,"period_min":94.26702869212,"perigee_km":481.84070182018,"apogee_km":484.28466114673,"semimajor_km":6861.1996814835,"source":"CELESTRAK","updated_at":"2026-05-25T13:38:18.585141Z"}}